Regional Weather Roundup
Issued by NWS Charleston, SC

Current Version | Previous Version | Graphics & Text | Print | Product List | Glossary On
Versions: 1 2 3 4 5 6 7 8 9 10 11 12 13 14 15 16 17 18 19 20 21 22 23 24 25 26 27 28 29 30 31 32 33 34 35 36 37 38 39 40 41 42 43 44 45 46 47 48 49 50
000 ASUS42 KCHS 302128 RWRCHS REGIONAL WEATHER ROUNDUP NATIONAL WEATHER SERVICE CHARLESTON SC 500 PM EDT FRI SEP 30 2016 NOTE: "FAIR" INDICATES FEW OR NO CLOUDS BELOW 12,000 FEET WITH NO SIGNIFICANT WEATHER AND/OR OBSTRUCTIONS TO VISIBILITY. NOT ALL STATIONS ARE QUALITY CONTROLLED. USE DATA WITH CAUTION... ESPECIALLY DEWPOINT OBSERVATIONS. SCZ027-030-031-034>040-042>050-302200- ...SOUTHEAST SOUTH CAROLINA... CITY SKY/WX TMP DP RH WIND PRES REMARKS N CHARLESTON MOSUNNY 87 60 40 S9 29.96S WATERFRONT PRK N/A 83 68 60 S8 29.94S MOUNT PLEASANT FAIR 84 66 54 S8 29.96S JOHNS ISLAND FAIR 84 66 54 S8 29.96S PINOPOLIS N/A 84 64 51 SW8 29.89S MONCKS CORNER FAIR 82 59 44 SW5 29.96R SUMMERVILLE FAIR 82 64 54 SW5 29.97S BEAUFORT MCAS SUNNY 86 57 37 SW14 29.96F BEAUFORT ARPT FAIR 82 63 51 S7 29.96S HILTON HEAD IS SUNNY 88 64 45 S7 29.97F WALTERBORO CLEAR 84 55 37 NW8 29.98R ALLENDALE FAIR 82 54 36 SW5 29.97S ...SOUTHERN MIDLANDS AND PEE DEE... CITY SKY/WX TMP DP RH WIND PRES REMARKS GEORGETOWN FAIR 82 64 54 S8 29.97S KINGSTREE FAIR 84 61 45 S5 29.95S ORANGEBURG SUNNY 82 52 35 S10 29.97S BARNWELL NOT AVBL AIKEN FAIR 79 46 31 S7 30.01S MANNING FAIR 82 59 44 SW8 29.96S COLUMBIA MOSUNNY 84 46 26 SW10 29.95S SUMTER SUNNY 84 53 34 SW12 29.94S FLORENCE SUNNY 86 60 41 S12 29.95R MYRTLE BEACH NOT AVBL N MYRTLE BEACH SUNNY 84 72 67 S17 29.96R $$ GAZ063-065-086>088-099>101-113>116-118-119-134>141-150-302200- ...SOUTHEAST GEORGIA... CITY SKY/WX TMP DP RH WIND PRES REMARKS SAVANNAH ARPT MOSUNNY 86 55 34 W12 29.96F HUNTER AAF SUNNY 87 67 51 SW10 29.93F FORT STEWART SUNNY 86 53 32 SW13 29.94F STATESBORO SUNNY 82 55 38 W8 29.98S SYLVANIA NOT AVBL CLAXTON FAIR 83 53 35 W8 29.97F ...CSRA...CENTRAL AND FAR SOUTHEAST GEORGIA... CITY SKY/WX TMP DP RH WIND PRES REMARKS THOMSON SUNNY 82 50 33 W6 30.02S AUGUSTA-BUSH SUNNY 82 46 28 SW9 29.96F AUGUSTA-DANIEL SUNNY 82 45 27 SW12 29.98S SWAINSBORO FAIR 81 46 30 W9 29.99S VIDALIA SUNNY 82 55 39 SW6 29.99S EASTMAN FAIR 82 24 12 W6 30.02S HAZLEHURST FAIR 83 50 31 NE3 29.98S ALMA SUNNY 83 50 31 W8 29.98S WAYCROSS SUNNY 89 56 33 W9 29.97S JESUP FAIR 88 61 40 SW9 29.97S BAXLEY FAIR 82 54 36 W9 29.98S BRUNSWICK SUNNY 88 61 40 SW7 29.97S SAINT SIMONS SUNNY 84 64 50 SE6 29.96F $$ SCZ027-028-034-036>038-045-046-048>050-GAZ119-141-302200- ...LAKE AND SUPPLEMENTAL COASTAL OBSERVATIONS... STATION/POSITION TIME TEMP WIND PRES WAVE SWELL AIR SEA DIR/SP/G HT/PER HT/PER/DIR (UTC) (F) (DEG/KT/KT) (MB) (FT/S) (FT/S/D) WINYAH BAY 2030 85 200/ 11 1014.0R LAKE MURRAY 2050 79 230/ 9/ 12 1014.2R ACE BASIN NERRS 2045 85 CALM 1015.0S FORT PULASKI 2100 83 82 120/ 8/ 11 1014.9 SAPELO ISLAND 2100 88 220/ 2 1015.0 $$ ANZ835-935-AMZ111-154-330-350-352-354-370-450-454-472-302200- ...C-MAN AND BUOY OBSERVATIONS... STATION/POSITION TIME TEMP WIND PRES WAVE SWELL AIR SEA DIR/SP/G HT/PER HT/PER/DIR (UTC) (F) (DEG/KT/KT) (MB) (FT/S) (FT/S/D) BUOY 41004 2050 82 83 200/ 10/ 14 1014.6S 3/ 6 2/180/ 6 BUOY 41008 2050 80 83 170/ 4/ 6 1015.0F 2/ 5 2/140/ 5 FOLLY BEACH CMAN 2100 81 200/ 9/ 10 1015.1S CAPERS NEARSHORE 2008 81 82 220/ 12/ 14 1014.6F FRIPP NEARSHORE 2008 81 82 200/ 6/ 8 1015.0F STATION/POSITION TIME TEMP WIND PRES WAVE SWELL AIR SEA DIR/SP/G HT/PER HT/PER/DIR (UTC) (F) (DEG/KT/KT) (MB) (FT/S) (FT/S/D) 5E ST. MARYS GA 2101 84 N/A 2/ 9 FRYING PAN BUOY 2100 81 82 190/ 16/ 19 1015.0 BUOY 41025 2050 76 77 250/ 19/ 27 1017.1F 4/10 3/ 50/10 CAPE LOOKOUT NC 2100 75 100/ 12/ 13 1016.0S BUOY 41002 2050 82 83 180/ 10/ 12 1018.2R 4/ 5 3/170/ 5 BUOY 41010 NOT AVBL ST AUGUSTINE FL 2100 81 84 130/ 8/ 9 1015.5F $$

USA.gov is the U.S. government's official web portal to all federal, state and local government web resources and services.